#timestamp,LO_Frequency,Hit 
1505329215.7,286047002.4,N
1505329235.5,286046996.5,N
1505329255.3,286046996.9,N
1505329275.2,286046996.5,N
1505329295.9,286046995.6,N
1505329315.7,286046997.8,N
1505329335.6,286046997.8,N
1505329355.4,286046998.7,N
1505329375.2,286046993.3,N
1505329395.0,286046994.7,N
1505329395.9,286046994.7,N
1505329415.8,286046991.8,N
1505329435.6,286046993.9,N
1505329455.4,286046998.3,N
1505329475.3,286046999.0,N
1505329495.1,286047000.5,N
1505329515.8,286046998.8,N
1505329535.7,286046993.3,N
1505329555.5,286046995.7,N
1505329575.3,286046994.0,N
1505329595.2,286046992.6,N
1505329615.9,286046989.6,N
1505329635.7,286046987.1,N
1505329655.6,286046990.4,N
1505329675.4,286046990.2,N
1505329695.2,286046987.8,N
1505329715.0,286046982.9,N
1505329715.9,286046982.9,N
1505329735.8,286046983.5,N
1505329755.6,286046981.3,P
1505329775.5,286046991.6,N
1505329795.3,286046991.8,N
1505329815.1,286046992.6,N
1505329835.8,286046991.3,N
1505329855.7,286046992.4,N
1505329875.5,286046993.7,N
1505329895.3,286046994.4,N
1505329915.2,286046991.3,N
1505329935.9,286046988.6,P
1505329955.7,286047002.2,N
1505329975.6,286047003.0,N
1505329995.4,286047003.6,N
1505330015.2,286047001.9,N
1505330035.1,286046999.9,N
1505330036.0,286046999.9,N
1505330055.8,286046998.3,N
1505330075.6,286046998.9,N
1505330095.5,286046998.2,N
1505330115.3,286047002.5,N
1505330135.1,286047003.9,N
1505330155.9,286046999.8,N
1505330175.7,286046998.6,N
1505330195.5,286046997.4,N
1505330215.3,286046998.7,N
1505330235.2,286046998.7,N
1505330255.0,286046998.9,N
1505330255.9,286046998.9,N
1505330275.7,286047001.3,N
1505330295.6,286047002.3,N
1505330315.4,286047005.7,N
1505330335.2,286047004.4,N
1505330355.1,286047000.9,N
1505330356.0,286047000.9,N
1505330375.8,286046999.4,N
1505330395.6,286046997.7,N
1505330415.5,286046997.7,N
1505330435.3,286046994.9,N
1505330455.1,286046994.3,N
1505330475.9,286046996.3,N
1505330495.7,286046995.1,N
1505330515.5,286046994.9,N
1505330535.3,286046998.5,N
1505330555.2,286046998.2,N
1505330575.0,286046998.2,N
1505330575.9,286046998.2,N
1505330595.7,286046998.8,N
1505330615.6,286046999.0,N
1505330635.4,286046995.7,N
1505330655.2,286046994.6,N
1505330675.1,286046995.3,N
1505330676.0,286046995.3,N
1505330695.8,286046991.8,N
1505330715.6,286046994.4,N
1505330735.5,286046993.5,N
1505330755.3,286046996.1,N
1505330775.1,286046998.5,N
1505330795.9,286047001.0,N
1505330815.7,286046996.7,N
1505330835.5,286046996.4,N
1505330855.4,286046991.9,N
1505330875.2,286046995.6,N
1505330895.0,286046999.4,N
1505330895.9,286046999.4,N
1505330915.8,286046996.2,N
1505330935.6,286046996.4,N
1505330955.4,286046996.3,N
1505330975.3,286046993.3,P
1505330995.1,286047001.6,N
1505330996.0,286047001.6,N
1505331015.8,286047006.3,N
1505331035.7,286047008.9,N
1505331055.5,286047005.6,N
1505331075.3,286047002.8,N
1505331095.1,286047004.4,N
1505331115.9,286047000.4,N
1505331135.7,286046999.3,N
1505331155.5,286047000.4,N
1505331175.4,286047001.1,N
1505331195.2,286047005.7,N
1505331215.0,286047009.2,N
1505331215.9,286047009.2,N
1505331235.8,286047003.4,N
1505331255.6,286047002.7,N
1505331275.4,286047000.8,N
1505331295.3,286046998.5,N
1505331315.1,286046998.2,N
1505331316.0,286046998.2,N
1505331335.8,286046999.6,N
1505331355.7,286047001.2,N
1505331375.5,286047004.2,N
1505331395.3,286047002.0,N
1505331415.1,286046997.4,N
1505331435.9,286046993.8,N
1505331455.7,286046993.3,N
1505331475.5,286046999.6,N
1505331495.4,286046998.5,N
1505331515.2,286047000.7,N
1505331535.0,286047003.2,N
1505331535.9,286047003.2,N
1505331555.8,286047005.6,N
1505331575.6,286047001.5,N
1505331595.4,286047002.1,N
1505331615.3,286046998.4,N
1505331635.1,286047000.1,N
1505331636.0,286047000.1,N
1505331655.8,286047004.3,N
1505331675.7,286047001.6,N
1505331695.5,286047001.8,N
1505331715.3,286047002.2,N
1505331735.2,286047001.7,N
1505331755.9,286047001.5,N
1505331775.7,286046998.1,N
1505331795.5,286046994.9,N
1505331815.4,286046999.3,N
1505331835.2,286047001.3,N
1505331855.0,286047004.8,N
1505331855.9,286047004.8,N
1505331875.8,286047000.5,N
1505331895.6,286047000.7,N
1505331915.4,286047000.2,N
1505331935.3,286047001.2,N
1505331955.1,286047002.2,N
1505331975.8,286047000.6,N
1505331995.7,286046997.2,N
1505332015.5,286046998.8,N
1505332035.3,286046996.7,N
1505332055.2,286046996.9,N
1505332075.9,286046998.1,N
1505332095.7,286046999.1,N
1505332115.6,286046999.3,N
1505332135.4,286047002.1,N
1505332155.2,286047005.9,N
1505332175.0,286047003.8,N
1505332175.9,286047003.8,N
1505332195.8,286047000.9,N
1505332215.6,286046999.7,N
1505332235.4,286047000.9,N
1505332255.3,286046999.5,N
1505332275.1,286046997.4,N
1505332295.8,286046995.4,N
1505332315.7,286046998.6,N
1505332335.5,286047002.7,N
1505332355.3,286047002.7,N
1505332375.2,286047002.5,N
1505332395.9,286047003.0,N
1505332415.7,286047005.7,N
1505332435.6,286047001.7,N
1505332455.4,286047001.8,N
1505332475.2,286047004.2,N
1505332495.0,286047000.5,N
1505332496.0,286047000.5,N
1505332515.8,286047002.3,N
1505332535.6,286047001.5,N
1505332555.4,286047002.3,N
1505332575.3,286047003.8,N
1505332595.1,286047005.7,N
1505332615.8,286047005.4,N
1505332635.7,286047001.5,N
1505332655.5,286047003.5,N
1505332675.3,286047001.9,N
1505332695.2,286047005.7,N
1505332715.9,286047001.9,N
1505332735.7,286047001.4,N
1505332755.6,286047001.4,N
1505332775.4,286047000.1,N
1505332795.2,286047000.3,N
